| time (UTC) | temp F | wind direction | speed MPH | gust MPH | rain 1hr in | rain 24hr in | rain mn in | humidity % | barometer mb |
| 20260905121550 | 49 | 315 | 0.0 | 0.0 | 0.00 | 0.00 | 0.00 | 92 | 1015.8 |
| 20260905120023 | 49 | 315 | 0.0 | 0.0 | 0.00 | 0.00 | 0.00 | 91 | 1015.7 |
| 20260905114523 | 49 | 315 | 0.0 | 0.0 | 0.00 | 0.00 | 0.00 | 91 | 1015.7 |
| 20260905113004 | 49 | 315 | 0.0 | 0.0 | 0.00 | 0.00 | 0.00 | 90 | 1015.8 |
| 20260905111505 | 49 | 315 | 0.0 | 0.0 | 0.00 | 0.00 | 0.00 | 90 | 1015.8 |
| 20260905110043 | 49 | 315 | 0.0 | 0.0 | 0.00 | 0.00 | 0.00 | 90 | 1015.5 |
| 20260905104545 | 50 | 315 | 0.0 | 0.0 | 0.00 | 0.00 | 0.00 | 90 | 1015.3 |
| 20260905103023 | 50 | 315 | 0.0 | 0.0 | 0.00 | 0.00 | 0.00 | 90 | 1015.3 |
| 20260905101525 | 51 | 315 | 0.0 | 0.0 | 0.00 | 0.00 | 0.00 | 90 | 1015.3 |
| 20260905100002 | 51 | 315 | 0.0 | 0.0 | 0.00 | 0.00 | 0.00 | 90 | 1015.3 |
| 20260905094559 | 52 | 315 | 0.0 | 0.0 | 0.00 | 0.00 | 0.00 | 90 | 1015.2 |
| 20260905093041 | 52 | 315 | 0.0 | 0.0 | 0.00 | 0.00 | 0.00 | 90 | 1015.3 |
| 20260905091554 | 52 | 315 | 0.0 | 0.0 | 0.00 | 0.00 | 0.00 | 90 | 1015.3 |
| 20260905090023 | 52 | 315 | 0.0 | 0.0 | 0.00 | 0.00 | 0.00 | 90 | 1015.2 |
| 20260905084522 | 52 | 315 | 0.0 | 0.0 | 0.00 | 0.00 | 0.00 | 90 | 1015.2 |
| 20260905083003 | 52 | 315 | 0.0 | 0.0 | 0.00 | 0.00 | 0.00 | 90 | 1015.1 |
| 20260905081503 | 52 | 315 | 0.0 | 0.0 | 0.00 | 0.00 | 0.00 | 90 | 1015.2 |
| 20260905080044 | 53 | 315 | 0.0 | 0.0 | 0.00 | 0.00 | 0.00 | 90 | 1015.1 |
| 20260905074546 | 52 | 315 | 0.0 | 0.0 | 0.00 | 0.00 | 0.00 | 89 | 1015.2 |
| 20260905073025 | 53 | 315 | 0.0 | 0.0 | 0.00 | 0.00 | 0.00 | 89 | 1015.0 |
| 20260905071524 | 52 | 315 | 0.0 | 0.0 | 0.00 | 0.00 | 0.00 | 88 | 1015.0 |
| 20260905070005 | 52 | 315 | 0.0 | 0.0 | 0.00 | 0.00 | 0.00 | 88 | 1014.8 |
| 20260905064503 | 53 | 315 | 0.0 | 0.0 | 0.00 | 0.00 | 0.00 | 87 | 1014.7 |
| 20260905063044 | 53 | 315 | 0.0 | 0.0 | 0.00 | 0.00 | 0.00 | 87 | 1014.7 |
| 20260905061545 | 53 | 315 | 0.0 | 0.0 | 0.00 | 0.00 | 0.00 | 86 | 1014.5 |
| 20260905060037 | 53 | 315 | 0.0 | 0.0 | 0.00 | 0.00 | 0.00 | 85 | 1013.7 |
| 20260905054554 | 53 | 315 | 0.0 | 0.0 | 0.00 | 0.00 | 0.00 | 84 | 1014.1 |
| 20260905053005 | 54 | 315 | 0.0 | 0.0 | 0.00 | 0.00 | 0.00 | 83 | 1014.0 |
| 20260905051508 | 54 | 315 | 0.0 | 0.0 | 0.00 | 0.00 | 0.00 | 83 | 1013.9 |
| 20260905050046 | 54 | 317 | 1.0 | 0.0 | 0.00 | 0.00 | 0.00 | 83 | 1014.4 |
| 20260905044549 | 54 | 319 | 0.0 | 0.0 | 0.00 | 0.00 | 0.00 | 81 | 1013.9 |
| 20260905043025 | 54 | 319 | 0.0 | 0.0 | 0.00 | 0.00 | 0.00 | 81 | 1013.9 |
| 20260905041526 | 54 | 319 | 0.0 | 0.0 | 0.00 | 0.00 | 0.00 | 80 | 1014.1 |
| 20260905040011 | 55 | 319 | 0.0 | 0.0 | 0.00 | 0.00 | 0.00 | 80 | 1014.6 |
| 20260905034507 | 55 | 320 | 0.0 | 0.0 | 0.00 | 0.00 | 0.00 | 79 | 1013.8 |
| 20260905033010 | 55 | 320 | 0.0 | 0.0 | 0.00 | 0.00 | 0.07 | 79 | 1013.9 |
| 20260905031506 | 56 | 334 | 1.0 | 0.0 | 0.00 | 0.00 | 0.07 | 79 | 1013.9 |
| 20260905030010 | 56 | 360 | 0.0 | 0.0 | 0.00 | 0.00 | 0.07 | 78 | 1013.8 |
| 20260905024504 | 57 | 360 | 0.0 | 0.0 | 0.00 | 0.00 | 0.07 | 75 | 1013.4 |
| 20260905023004 | 58 | 360 | 0.0 | 0.0 | 0.00 | 0.00 | 0.07 | 73 | 1013.8 |
| 20260905021506 | 59 | 360 | 0.0 | 0.0 | 0.00 | 0.00 | 0.07 | 72 | 1013.9 |
| 20260905020056 | 60 | 360 | 0.0 | 0.0 | 0.00 | 0.00 | 0.07 | 70 | 1014.3 |
| 20260905014551 | 60 | 360 | 0.0 | 0.0 | 0.00 | 0.00 | 0.07 | 70 | 1014.2 |
| 20260905013053 | 60 | 360 | 0.0 | 0.0 | 0.00 | 0.00 | 0.07 | 71 | 1014.1 |
| 20260905011552 | 59 | 360 | 0.0 | 0.0 | 0.00 | 0.00 | 0.07 | 73 | 1014.1 |
| 20260905010059 | 58 | 360 | 0.0 | 0.0 | 0.00 | 0.00 | 0.07 | 72 | 1014.4 |
| 20260905004549 | 59 | 360 | 0.0 | 0.0 | 0.00 | 0.00 | 0.07 | 70 | 1014.4 |
| 20260905003048 | 59 | 360 | 0.0 | 0.0 | 0.00 | 0.00 | 0.07 | 70 | 1014.6 |
| 20260905001550 | 59 | 360 | 0.0 | 0.0 | 0.00 | 0.00 | 0.07 | 68 | 1014.7 |
| 20260905000034 | 61 | 360 | 0.0 | 0.0 | 0.00 | 0.00 | 0.07 | 65 | 1014.7 |
| 20260904234528 | 61 | 360 | 0.0 | 0.0 | 0.00 | 0.00 | 0.07 | 65 | 1014.5 |
| 20260904233007 | 60 | 360 | 0.0 | 0.0 | 0.00 | 0.00 | 0.07 | 68 | 1014.5 |
| 20260904231504 | 59 | 360 | 0.0 | 0.0 | 0.00 | 0.00 | 0.07 | 71 | 1014.6 |
| 20260904230045 | 58 | 360 | 0.0 | 0.0 | 0.00 | 0.00 | 0.07 | 76 | 1014.6 |
| 20260904224540 | 56 | 360 | 0.0 | 0.0 | 0.00 | 0.00 | 0.07 | 81 | 1014.8 |
| 20260904223020 | 54 | 338 | 0.0 | 0.0 | 0.00 | 0.00 | 0.06 | 84 | 1014.9 |
| 20260904221521 | 53 | 338 | 0.0 | 0.0 | 0.00 | 0.00 | 0.06 | 84 | 1014.9 |
| 20260904220002 | 53 | 338 | 0.0 | 0.0 | 0.00 | 0.00 | 0.06 | 83 | 1015.1 |
| 20260904214502 | 53 | 338 | 0.0 | 0.0 | 0.00 | 0.00 | 0.06 | 84 | 1015.1 |
| 20260904213105 | 53 | 338 | 0.0 | 0.0 | 0.00 | 0.00 | 0.06 | 83 | 1014.9 |
| 20260904211543 | 53 | 338 | 0.0 | 0.0 | 0.00 | 0.00 | 0.06 | 84 | 1015.0 |
| 20260904210048 | 54 | 338 | 0.0 | 0.0 | 0.00 | 0.00 | 0.05 | 83 | 1014.9 |
| 20260904204525 | 53 | 338 | 0.0 | 0.0 | 0.00 | 0.00 | 0.04 | 81 | 1014.8 |
| 20260904203025 | 54 | 338 | 0.0 | 0.0 | 0.00 | 0.00 | 0.04 | 79 | 1015.0 |
| 20260904201507 | 54 | 338 | 0.0 | 0.0 | 0.00 | 0.00 | 0.04 | 80 | 1014.5 |
| 20260904200006 | 54 | 338 | 0.0 | 0.0 | 0.00 | 0.00 | 0.04 | 83 | 1014.4 |
| 20260904194551 | 54 | 338 | 0.0 | 0.0 | 0.00 | 0.00 | 0.04 | 85 | 1014.5 |
| 20260904193045 | 53 | 338 | 0.0 | 0.0 | 0.00 | 0.00 | 0.04 | 84 | 1014.7 |
| 20260904191533 | 53 | 338 | 0.0 | 0.0 | 0.00 | 0.00 | 0.02 | 83 | 1014.9 |
| 20260904190027 | 53 | 338 | 0.0 | 0.0 | 0.00 | 0.00 | 0.02 | 82 | 1014.9 |
| 20260904184514 | 53 | 338 | 0.0 | 0.0 | 0.00 | 0.00 | 0.02 | 83 | 1014.9 |
| 20260904183013 | 53 | 338 | 0.0 | 0.0 | 0.00 | 0.00 | 0.02 | 82 | 1014.8 |
| 20260904181512 | 53 | 338 | 0.0 | 0.0 | 0.00 | 0.00 | 0.02 | 83 | 1014.9 |
| 20260904180013 | 52 | 338 | 0.0 | 0.0 | 0.00 | 0.00 | 0.02 | 83 | 1014.9 |
| 20260904174514 | 52 | 338 | 0.0 | 0.0 | 0.00 | 0.00 | 0.02 | 84 | 1014.7 |
| 20260904173012 | 52 | 338 | 0.0 | 0.0 | 0.00 | 0.00 | 0.02 | 86 | 1014.6 |
| 20260904171507 | 52 | 338 | 0.0 | 0.0 | 0.00 | 0.00 | 0.02 | 87 | 1014.3 |
| 20260904170003 | 52 | 338 | 0.0 | 0.0 | 0.00 | 0.00 | 0.02 | 87 | 1014.2 |
| 20260904164543 | 51 | 338 | 0.0 | 0.0 | 0.00 | 0.00 | 0.02 | 89 | 1014.2 |
| 20260904163042 | 51 | 338 | 0.0 | 0.0 | 0.00 | 0.00 | 0.02 | 90 | 1014.1 |
| 20260904161520 | 50 | 338 | 0.0 | 0.0 | 0.00 | 0.00 | 0.02 | 92 | 1013.8 |
| 20260904160021 | 49 | 338 | 0.0 | 0.0 | 0.00 | 0.00 | 0.02 | 92 | 1013.7 |
| 20260904154502 | 49 | 338 | 0.0 | 0.0 | 0.00 | 0.00 | 0.02 | 92 | 1013.7 |
| 20260904153001 | 49 | 338 | 0.0 | 0.0 | 0.00 | 0.00 | 0.02 | 93 | 1013.5 |
| 20260904151542 | 48 | 338 | 0.0 | 0.0 | 0.00 | 0.00 | 0.02 | 93 | 1013.8 |
| 20260904150041 | 48 | 338 | 0.0 | 0.0 | 0.00 | 0.00 | 0.02 | 94 | 1013.6 |
| 20260904144521 | 47 | 337 | 0.0 | 0.0 | 0.00 | 0.00 | 0.02 | 94 | 1013.2 |
| 20260904143032 | 47 | 337 | 0.0 | 0.0 | 0.00 | 0.00 | 0.02 | 94 | 1013.2 |
| 20260904141500 | 47 | 337 | 0.0 | 0.0 | 0.00 | 0.00 | 0.02 | 94 | 1013.0 |
| 20260904140109 | 46 | 337 | 0.0 | 0.0 | 0.00 | 0.00 | 0.02 | 93 | 1012.7 |
| 20260904134601 | 46 | 337 | 0.0 | 0.0 | 0.00 | 0.00 | 0.02 | 93 | 1012.8 |
| 20260904133042 | 46 | 337 | 0.0 | 0.0 | 0.00 | 0.00 | 0.02 | 93 | 1012.4 |
| 20260904131519 | 46 | 337 | 0.0 | 0.0 | 0.00 | 0.00 | 0.02 | 93 | 1012.1 |
| 20260904130021 | 46 | 337 | 0.0 | 0.0 | 0.00 | 0.00 | 0.02 | 93 | 1011.9 |
| 20260904124610 | 46 | 337 | 0.0 | 0.0 | 0.00 | 0.00 | 0.02 | 93 | 1011.8 |
| 20260904123103 | 46 | 337 | 0.0 | 0.0 | 0.00 | 0.00 | 0.02 | 93 | 1011.9 |